Time,TemperatureF,DewpointF,PressureIn,WindDirection,WindDirectionDegrees,WindSpeedMPH,WindSpeedGustMPH,Humidity,HourlyPrecipIn,Conditions,Clouds,dailyrainin,SoftwareType,DateUTC
2013-07-26 00:05:00,65.8,63.1,30.07,North,355,0.0,0.0,91,0.00,,,0.00,Wunderground v.1.15,2013-07-26 05:05:00,
2013-07-26 00:14:00,65.5,62.8,30.07,North,355,0.0,0.0,91,0.00,,,0.00,Wunderground v.1.15,2013-07-26 05:14:00,
2013-07-26 00:20:00,65.4,63.0,30.06,North,355,0.0,0.0,92,0.00,,,0.00,Wunderground v.1.15,2013-07-26 05:20:00,
2013-07-26 00:25:00,65.3,62.9,30.06,North,355,0.0,0.0,92,0.00,,,0.01,Wunderground v.1.15,2013-07-26 05:25:00,
2013-07-26 00:30:00,65.3,62.9,30.06,North,355,0.0,0.0,92,0.00,,,0.01,Wunderground v.1.15,2013-07-26 05:30:00,
2013-07-26 00:35:00,65.2,63.1,30.06,North,355,0.0,0.0,93,0.00,,,0.01,Wunderground v.1.15,2013-07-26 05:35:00,
2013-07-26 00:40:00,65.2,63.1,30.06,North,355,0.0,0.0,93,0.00,,,0.01,Wunderground v.1.15,2013-07-26 05:40:00,
2013-07-26 00:49:00,65.4,63.3,30.06,North,355,0.0,0.0,93,0.00,,,0.01,Wunderground v.1.15,2013-07-26 05:49:00,
2013-07-26 00:54:00,65.5,63.4,30.06,North,355,0.0,0.0,93,0.00,,,0.02,Wunderground v.1.15,2013-07-26 05:54:00,
2013-07-26 01:00:00,65.6,63.5,30.05,NE,37,0.0,0.0,93,0.00,,,0.02,Wunderground v.1.15,2013-07-26 06:00:00,
2013-07-26 01:05:00,65.7,63.6,30.06,NE,38,0.0,0.0,93,0.00,,,0.02,Wunderground v.1.15,2013-07-26 06:05:00,
2013-07-26 01:15:00,66.1,64.0,30.06,NE,47,0.0,0.0,93,0.00,,,0.02,Wunderground v.1.15,2013-07-26 06:15:00,
2013-07-26 01:20:00,66.3,63.9,30.06,ESE,107,0.0,1.0,92,0.00,,,0.02,Wunderground v.1.15,2013-07-26 06:20:00,
2013-07-26 01:25:00,66.6,64.2,30.06,South,169,1.0,1.0,92,0.00,,,0.02,Wunderground v.1.15,2013-07-26 06:25:00,
2013-07-26 01:30:00,66.8,64.1,30.06,NNE,16,0.0,0.0,91,0.00,,,0.02,Wunderground v.1.15,2013-07-26 06:30:00,
2013-07-26 01:35:00,67.0,64.3,30.06,West,279,1.0,3.0,91,0.00,,,0.02,Wunderground v.1.15,2013-07-26 06:35:00,
2013-07-26 01:40:00,67.1,64.4,30.05,West,279,1.0,1.0,91,0.00,,,0.02,Wunderground v.1.15,2013-07-26 06:40:00,
2013-07-26 01:49:00,67.0,64.0,30.05,West,269,0.0,0.0,90,0.00,,,0.02,Wunderground v.1.15,2013-07-26 06:49:00,
2013-07-26 01:55:00,66.9,64.2,30.05,WNW,284,1.0,1.0,91,0.00,,,0.02,Wunderground v.1.15,2013-07-26 06:55:00,
2013-07-26 02:00:00,66.8,64.1,30.04,NNW,348,0.0,1.0,91,0.00,,,0.02,Wunderground v.1.15,2013-07-26 07:00:00,
2013-07-26 02:05:00,66.6,63.9,30.04,NNW,345,0.0,1.0,91,0.00,,,0.02,Wunderground v.1.15,2013-07-26 07:05:00,
2013-07-26 02:15:00,66.2,63.5,30.03,SE,144,0.0,0.0,91,0.00,,,0.02,Wunderground v.1.15,2013-07-26 07:15:00,
2013-07-26 02:20:00,66.1,63.7,30.02,ESE,117,0.0,0.0,92,0.00,,,0.03,Wunderground v.1.15,2013-07-26 07:20:00,
2013-07-26 02:25:00,66.0,63.6,30.02,SE,125,0.0,0.0,92,0.00,,,0.03,Wunderground v.1.15,2013-07-26 07:25:00,
2013-07-26 02:30:00,65.9,63.5,30.02,WNW,290,0.0,0.0,92,0.00,,,0.03,Wunderground v.1.15,2013-07-26 07:30:00,
2013-07-26 02:35:00,65.8,63.7,30.01,ESE,121,0.0,0.0,93,0.00,,,0.03,Wunderground v.1.15,2013-07-26 07:35:00,
2013-07-26 02:45:00,65.8,63.4,30.01,ESE,119,0.0,0.0,92,0.00,,,0.03,Wunderground v.1.15,2013-07-26 07:45:00,
2013-07-26 02:54:00,65.5,63.1,30.01,SSW,206,0.0,0.0,92,0.00,,,0.03,Wunderground v.1.15,2013-07-26 07:54:00,
2013-07-26 03:00:00,65.3,63.2,30.01,SSW,204,0.0,0.0,93,0.00,,,0.03,Wunderground v.1.15,2013-07-26 08:00:00,
2013-07-26 03:05:00,65.2,63.1,30.00,WSW,256,0.0,0.0,93,0.00,,,0.03,Wunderground v.1.15,2013-07-26 08:05:00,
2013-07-26 03:14:00,65.2,63.1,30.00,South,190,0.0,0.0,93,0.00,,,0.04,Wunderground v.1.15,2013-07-26 08:14:00,
2013-07-26 03:19:00,65.1,63.0,30.00,SSW,210,0.0,0.0,93,0.00,,,0.04,Wunderground v.1.15,2013-07-26 08:19:00,
2013-07-26 03:24:00,65.0,62.9,30.00,South,183,0.0,0.0,93,0.00,,,0.04,Wunderground v.1.15,2013-07-26 08:24:00,
2013-07-26 03:30:00,64.8,62.7,30.00,ESE,109,0.0,0.0,93,0.00,,,0.04,Wunderground v.1.15,2013-07-26 08:30:00,
2013-07-26 03:35:00,64.8,62.7,30.00,ESE,117,0.0,0.0,93,0.00,,,0.04,Wunderground v.1.15,2013-07-26 08:35:00,
2013-07-26 03:40:00,64.7,62.6,30.00,WSW,254,0.0,0.0,93,0.00,,,0.04,Wunderground v.1.15,2013-07-26 08:40:00,
2013-07-26 03:45:00,64.7,62.6,30.00,WNW,289,0.0,0.0,93,0.00,,,0.04,Wunderground v.1.15,2013-07-26 08:45:00,
2013-07-26 03:54:00,64.7,62.6,30.00,NE,41,0.0,0.0,93,0.00,,,0.04,Wunderground v.1.15,2013-07-26 08:54:00,
2013-07-26 04:00:00,64.7,62.6,30.00,SE,134,0.0,0.0,93,0.00,,,0.04,Wunderground v.1.15,2013-07-26 09:00:00,
2013-07-26 04:05:00,64.8,62.7,30.00,SE,138,0.0,0.0,93,0.00,,,0.04,Wunderground v.1.15,2013-07-26 09:05:00,
2013-07-26 04:14:00,64.9,62.8,30.00,SE,128,0.0,0.0,93,0.00,,,0.04,Wunderground v.1.15,2013-07-26 09:14:00,
2013-07-26 04:19:00,65.0,62.9,30.00,SE,128,0.0,0.0,93,0.00,,,0.04,Wunderground v.1.15,2013-07-26 09:19:00,
2013-07-26 04:25:00,65.0,62.9,30.00,SE,128,0.0,0.0,93,0.00,,,0.04,Wunderground v.1.15,2013-07-26 09:25:00,
2013-07-26 04:30:00,65.0,62.9,30.01,SE,128,0.0,0.0,93,0.00,,,0.04,Wunderground v.1.15,2013-07-26 09:30:00,
2013-07-26 04:35:00,64.9,62.8,30.01,SE,128,0.0,0.0,93,0.00,,,0.04,Wunderground v.1.15,2013-07-26 09:35:00,
2013-07-26 04:40:00,64.9,62.8,30.01,SE,128,0.0,0.0,93,0.00,,,0.04,Wunderground v.1.15,2013-07-26 09:40:00,
2013-07-26 04:49:00,64.9,62.8,30.01,SE,128,0.0,0.0,93,0.00,,,0.04,Wunderground v.1.15,2013-07-26 09:49:00,
2013-07-26 04:54:00,64.9,62.8,30.01,SE,128,0.0,0.0,93,0.00,,,0.04,Wunderground v.1.15,2013-07-26 09:54:00,
2013-07-26 05:00:00,64.9,62.8,30.01,SE,128,0.0,0.0,93,0.00,,,0.05,Wunderground v.1.15,2013-07-26 10:00:00,
2013-07-26 05:05:00,64.8,62.7,30.00,SE,128,0.0,0.0,93,0.14,,,0.06,Wunderground v.1.15,2013-07-26 10:05:00,
2013-07-26 05:14:00,64.8,62.7,30.00,ESE,115,0.0,1.0,93,0.05,,,0.06,Wunderground v.1.15,2013-07-26 10:14:00,
2013-07-26 05:19:00,64.8,63.0,30.00,ESE,115,0.0,4.0,94,0.00,,,0.06,Wunderground v.1.15,2013-07-26 10:19:00,
2013-07-26 05:24:00,64.8,63.0,30.00,ESE,117,0.0,4.0,94,0.00,,,0.06,Wunderground v.1.15,2013-07-26 10:24:00,
2013-07-26 05:30:00,64.8,63.0,30.00,ESE,109,0.0,0.0,94,0.00,,,0.06,Wunderground v.1.15,2013-07-26 10:30:00,
2013-07-26 05:35:00,64.8,63.0,30.00,ESE,109,0.0,0.0,94,0.00,,,0.06,Wunderground v.1.15,2013-07-26 10:35:00,
2013-07-26 05:40:00,64.8,63.0,30.00,ESE,109,0.0,0.0,94,0.00,,,0.06,Wunderground v.1.15,2013-07-26 10:40:00,
2013-07-26 05:45:00,64.8,63.0,30.00,ESE,109,0.0,0.0,94,0.00,,,0.07,Wunderground v.1.15,2013-07-26 10:45:00,
2013-07-26 05:54:00,64.7,62.9,30.01,ESE,109,0.0,0.0,94,0.00,,,0.07,Wunderground v.1.15,2013-07-26 10:54:00,
2013-07-26 05:59:00,64.7,62.9,30.01,ESE,109,0.0,0.0,94,0.00,,,0.07,Wunderground v.1.15,2013-07-26 10:59:00,
2013-07-26 06:05:00,64.7,63.2,30.01,ESE,109,0.0,0.0,95,0.00,,,0.07,Wunderground v.1.15,2013-07-26 11:05:00,
2013-07-26 06:14:00,64.8,63.3,30.01,ESE,109,0.0,0.0,95,0.00,,,0.07,Wunderground v.1.15,2013-07-26 11:14:00,
2013-07-26 06:19:00,64.8,63.3,30.01,ESE,109,0.0,0.0,95,0.00,,,0.07,Wunderground v.1.15,2013-07-26 11:19:00,
2013-07-26 06:25:00,64.9,63.4,30.01,East,101,0.0,0.0,95,0.00,,,0.07,Wunderground v.1.15,2013-07-26 11:25:00,
2013-07-26 06:30:00,64.9,63.4,30.01,East,101,0.0,0.0,95,0.00,,,0.07,Wunderground v.1.15,2013-07-26 11:30:00,
2013-07-26 06:35:00,65.0,63.5,30.01,East,101,0.0,0.0,95,0.00,,,0.07,Wunderground v.1.15,2013-07-26 11:35:00,
2013-07-26 06:44:00,65.0,63.5,30.02,East,101,0.0,0.0,95,0.00,,,0.07,Wunderground v.1.15,2013-07-26 11:44:00,
2013-07-26 06:49:00,65.0,63.5,30.02,East,101,0.0,0.0,95,0.00,,,0.07,Wunderground v.1.15,2013-07-26 11:49:00,
2013-07-26 06:54:00,64.9,63.4,30.02,East,101,0.0,0.0,95,0.00,,,0.07,Wunderground v.1.15,2013-07-26 11:54:00,
2013-07-26 07:00:00,64.9,63.1,30.02,SSE,148,0.0,0.0,94,0.00,,,0.07,Wunderground v.1.15,2013-07-26 12:00:00,
2013-07-26 07:05:00,64.9,63.1,30.02,SE,127,0.0,0.0,94,0.00,,,0.07,Wunderground v.1.15,2013-07-26 12:05:00,
2013-07-26 07:15:00,64.9,63.1,30.02,South,169,0.0,2.0,94,0.00,,,0.07,Wunderground v.1.15,2013-07-26 12:15:00,
2013-07-26 07:24:00,65.0,63.2,30.01,SE,135,0.0,0.0,94,0.00,,,0.07,Wunderground v.1.15,2013-07-26 12:24:00,
2013-07-26 07:30:00,65.1,63.3,30.01,SE,132,0.0,0.0,94,0.00,,,0.07,Wunderground v.1.15,2013-07-26 12:30:00,
2013-07-26 07:35:00,65.2,63.4,30.01,SE,132,0.0,0.0,94,0.00,,,0.07,Wunderground v.1.15,2013-07-26 12:35:00,
2013-07-26 07:40:00,65.3,63.5,30.01,SE,132,0.0,0.0,94,0.00,,,0.07,Wunderground v.1.15,2013-07-26 12:40:00,
2013-07-26 07:50:00,65.2,63.1,30.02,SE,130,0.0,0.0,93,0.00,,,0.07,Wunderground v.1.15,2013-07-26 12:50:00,
2013-07-26 07:55:00,65.2,63.1,30.02,SE,129,0.0,0.0,93,0.00,,,0.07,Wunderground v.1.15,2013-07-26 12:55:00,
2013-07-26 08:00:00,65.1,63.0,30.02,SE,129,0.0,0.0,93,0.00,,,0.07,Wunderground v.1.15,2013-07-26 13:00:00,
2013-07-26 08:05:00,65.0,62.9,30.02,SE,129,0.0,0.0,93,0.00,,,0.07,Wunderground v.1.15,2013-07-26 13:05:00,
2013-07-26 08:14:00,65.1,63.0,30.02,SE,129,0.0,0.0,93,0.00,,,0.07,Wunderground v.1.15,2013-07-26 13:14:00,
2013-07-26 08:20:00,65.1,63.0,30.02,WSW,244,0.0,3.0,93,0.00,,,0.07,Wunderground v.1.15,2013-07-26 13:20:00,
2013-07-26 08:25:00,65.1,63.0,30.02,South,182,0.0,3.0,93,0.00,,,0.07,Wunderground v.1.15,2013-07-26 13:25:00,
2013-07-26 08:30:00,64.9,62.5,30.02,SE,128,0.0,0.0,92,0.00,,,0.07,Wunderground v.1.15,2013-07-26 13:30:00,
2013-07-26 08:35:00,64.8,62.4,30.01,SE,126,0.0,0.0,92,0.00,,,0.07,Wunderground v.1.15,2013-07-26 13:35:00,
2013-07-26 08:45:00,64.6,62.5,30.01,SSW,210,0.0,0.0,93,0.00,,,0.08,Wunderground v.1.15,2013-07-26 13:45:00,
2013-07-26 08:50:00,64.6,62.5,30.01,South,176,0.0,0.0,93,0.00,,,0.08,Wunderground v.1.15,2013-07-26 13:50:00,
2013-07-26 09:00:00,64.7,62.9,30.01,South,171,0.0,0.0,94,0.00,,,0.08,Wunderground v.1.15,2013-07-26 14:00:00,
2013-07-26 09:05:00,64.7,62.9,30.01,South,170,0.0,0.0,94,0.29,,,0.10,Wunderground v.1.15,2013-07-26 14:05:00,
2013-07-26 09:15:00,64.8,63.0,30.01,East,98,0.0,0.0,94,0.12,,,0.11,Wunderground v.1.15,2013-07-26 14:15:00,
2013-07-26 09:20:00,64.8,63.0,30.01,East,98,0.0,0.0,94,0.06,,,0.11,Wunderground v.1.15,2013-07-26 14:20:00,
2013-07-26 09:25:00,64.8,63.0,30.00,East,99,0.0,0.0,94,0.04,,,0.11,Wunderground v.1.15,2013-07-26 14:25:00,
2013-07-26 09:35:00,64.8,63.0,30.01,East,101,0.0,0.0,94,0.00,,,0.11,Wunderground v.1.15,2013-07-26 14:35:00,
2013-07-26 09:44:00,64.7,62.9,30.00,ESE,109,0.0,0.0,94,0.53,,,0.18,Wunderground v.1.15,2013-07-26 14:44:00,
2013-07-26 09:50:00,64.7,63.2,30.00,ESE,110,0.0,0.0,95,0.42,,,0.25,Wunderground v.1.15,2013-07-26 14:50:00,
2013-07-26 09:55:00,64.6,63.1,30.00,ESE,110,0.0,0.0,95,0.65,,,0.30,Wunderground v.1.15,2013-07-26 14:55:00,
2013-07-26 10:00:00,64.6,63.1,30.00,ESE,110,0.0,0.0,95,0.97,,,0.40,Wunderground v.1.15,2013-07-26 15:00:00,
2013-07-26 10:05:00,64.7,63.2,30.00,SE,140,0.0,0.0,95,0.65,,,0.44,Wunderground v.1.15,2013-07-26 15:05:00,
2013-07-26 10:15:00,64.9,63.4,30.00,ESE,121,0.0,0.0,95,0.17,,,0.50,Wunderground v.1.15,2013-07-26 15:15:00,
2013-07-26 10:20:00,64.9,63.7,30.00,ESE,121,0.0,0.0,96,0.25,,,0.52,Wunderground v.1.15,2013-07-26 15:20:00,
2013-07-26 10:25:00,65.0,63.8,30.00,SSE,148,0.0,0.0,96,0.18,,,0.53,Wunderground v.1.15,2013-07-26 15:25:00,
2013-07-26 10:35:00,65.1,63.9,30.00,SE,132,0.0,0.0,96,0.30,,,0.59,Wunderground v.1.15,2013-07-26 15:35:00,
2013-07-26 10:44:00,65.2,64.0,30.00,SE,132,0.0,0.0,96,0.12,,,0.60,Wunderground v.1.15,2013-07-26 15:44:00,
2013-07-26 10:49:00,65.3,64.1,30.00,SE,132,0.0,0.0,96,0.09,,,0.61,Wunderground v.1.15,2013-07-26 15:49:00,
2013-07-26 11:00:00,65.5,64.3,30.00,ESE,105,0.0,0.0,96,0.08,,,0.64,Wunderground v.1.15,2013-07-26 16:00:00,
2013-07-26 11:05:00,65.7,64.5,30.00,ESE,106,0.0,0.0,96,0.05,,,0.64,Wunderground v.1.15,2013-07-26 16:05:00,
2013-07-26 11:15:00,65.8,64.6,30.00,NW,314,0.0,0.0,96,0.00,,,0.64,Wunderground v.1.15,2013-07-26 16:15:00,
2013-07-26 11:20:00,65.9,64.7,30.00,ESE,103,0.0,0.0,96,0.00,,,0.64,Wunderground v.1.15,2013-07-26 16:20:00,
2013-07-26 11:25:00,66.0,64.8,30.00,East,98,0.0,0.0,96,0.00,,,0.64,Wunderground v.1.15,2013-07-26 16:25:00,
2013-07-26 11:30:00,66.0,64.8,29.99,East,98,0.0,0.0,96,0.00,,,0.64,Wunderground v.1.15,2013-07-26 16:30:00,
2013-07-26 11:35:00,66.0,64.8,29.99,East,98,0.0,0.0,96,0.00,,,0.64,Wunderground v.1.15,2013-07-26 16:35:00,
2013-07-26 11:40:00,66.0,64.8,29.99,East,98,0.0,0.0,96,0.00,,,0.64,Wunderground v.1.15,2013-07-26 16:40:00,
2013-07-26 11:49:00,66.0,64.8,29.99,East,98,0.0,0.0,96,0.00,,,0.64,Wunderground v.1.15,2013-07-26 16:49:00,
2013-07-26 11:55:00,66.0,64.8,29.99,East,98,0.0,0.0,96,0.00,,,0.64,Wunderground v.1.15,2013-07-26 16:55:00,
2013-07-26 12:00:00,66.1,64.9,29.99,East,98,0.0,0.0,96,0.00,,,0.64,Wunderground v.1.15,2013-07-26 17:00:00,
2013-07-26 12:05:00,66.2,65.0,29.99,East,98,0.0,0.0,96,0.00,,,0.64,Wunderground v.1.15,2013-07-26 17:05:00,
2013-07-26 12:15:00,66.5,65.6,29.99,East,98,0.0,1.0,97,0.00,,,0.64,Wunderground v.1.15,2013-07-26 17:15:00,
2013-07-26 12:20:00,66.7,65.8,29.98,East,98,0.0,0.0,97,0.00,,,0.64,Wunderground v.1.15,2013-07-26 17:20:00,
2013-07-26 12:25:00,66.9,66.0,29.98,East,98,0.0,0.0,97,0.00,,,0.64,Wunderground v.1.15,2013-07-26 17:25:00,
2013-07-26 12:30:00,67.0,66.1,29.98,East,98,0.0,0.0,97,0.00,,,0.64,Wunderground v.1.15,2013-07-26 17:30:00,
2013-07-26 12:35:00,67.1,66.2,29.98,East,98,0.0,0.0,97,0.00,,,0.64,Wunderground v.1.15,2013-07-26 17:35:00,
2013-07-26 12:44:00,67.6,66.7,29.98,East,98,0.0,0.0,97,0.00,,,0.64,Wunderground v.1.15,2013-07-26 17:44:00,
2013-07-26 12:50:00,67.9,67.0,29.98,ESE,107,0.0,0.0,97,0.00,,,0.64,Wunderground v.1.15,2013-07-26 17:50:00,
2013-07-26 12:55:00,68.1,67.2,29.98,ESE,107,0.0,0.0,97,0.00,,,0.64,Wunderground v.1.15,2013-07-26 17:55:00,
2013-07-26 13:00:00,68.1,67.2,29.98,WSW,252,0.0,0.0,97,0.00,,,0.64,Wunderground v.1.15,2013-07-26 18:00:00,
2013-07-26 13:05:00,68.1,67.2,29.98,WSW,240,0.0,0.0,97,0.00,,,0.64,Wunderground v.1.15,2013-07-26 18:05:00,
2013-07-26 13:14:00,68.0,67.1,29.98,SW,217,0.0,0.0,97,0.00,,,0.64,Wunderground v.1.15,2013-07-26 18:14:00,
2013-07-26 13:20:00,68.8,67.9,29.97,SW,217,0.0,0.0,97,0.00,,,0.64,Wunderground v.1.15,2013-07-26 18:20:00,
2013-07-26 13:25:00,69.9,69.0,29.97,North,9,0.0,0.0,97,0.00,,,0.64,Wunderground v.1.15,2013-07-26 18:25:00,
2013-07-26 13:30:00,70.6,69.7,29.97,WNW,286,1.0,3.0,97,0.00,,,0.64,Wunderground v.1.15,2013-07-26 18:30:00,
2013-07-26 13:39:00,71.2,70.3,29.97,WNW,288,0.0,0.0,97,0.00,,,0.64,Wunderground v.1.15,2013-07-26 18:39:00,
2013-07-26 13:45:00,70.7,69.8,29.97,WNW,284,0.0,0.0,97,0.00,,,0.64,Wunderground v.1.15,2013-07-26 18:45:00,
2013-07-26 13:50:00,71.1,70.2,29.96,WSW,238,1.0,2.0,97,0.00,,,0.64,Wunderground v.1.15,2013-07-26 18:50:00,
2013-07-26 13:55:00,71.5,70.3,29.96,SSE,161,0.0,2.0,96,0.00,,,0.64,Wunderground v.1.15,2013-07-26 18:55:00,
2013-07-26 14:00:00,72.3,71.1,29.95,West,263,0.0,0.0,96,0.00,,,0.64,Wunderground v.1.15,2013-07-26 19:00:00,
2013-07-26 14:05:00,73.2,71.7,29.96,WNW,284,1.0,1.0,95,0.00,,,0.64,Wunderground v.1.15,2013-07-26 19:05:00,
2013-07-26 14:15:00,74.0,70.9,29.95,SE,132,1.0,1.0,90,0.00,,,0.64,Wunderground v.1.15,2013-07-26 19:15:00,
2013-07-26 14:20:00,74.1,70.6,29.95,WNW,292,1.0,1.0,89,0.00,,,0.64,Wunderground v.1.15,2013-07-26 19:20:00,
2013-07-26 14:29:00,74.6,70.5,29.94,SE,132,1.0,1.0,87,0.00,,,0.64,Wunderground v.1.15,2013-07-26 19:29:00,
2013-07-26 14:35:00,74.7,70.2,29.93,West,259,0.0,1.0,86,0.00,,,0.64,Wunderground v.1.15,2013-07-26 19:35:00,
2013-07-26 14:40:00,74.8,70.3,29.94,NW,304,0.0,0.0,86,0.00,,,0.64,Wunderground v.1.15,2013-07-26 19:40:00,
2013-07-26 14:45:00,75.0,69.8,29.93,North,10,0.0,0.0,84,0.00,,,0.64,Wunderground v.1.15,2013-07-26 19:45:00,
2013-07-26 14:50:00,74.9,69.7,29.93,WSW,237,0.0,2.0,84,0.00,,,0.64,Wunderground v.1.15,2013-07-26 19:50:00,
2013-07-26 14:55:00,74.6,69.4,29.92,South,190,1.0,2.0,84,0.00,,,0.64,Wunderground v.1.15,2013-07-26 19:55:00,
2013-07-26 15:05:00,73.5,68.7,29.92,East,98,0.0,1.0,85,0.00,,,0.64,Wunderground v.1.15,2013-07-26 20:05:00,
2013-07-26 15:15:00,73.1,69.0,29.92,ESE,118,1.0,1.0,87,0.00,,,0.64,Wunderground v.1.15,2013-07-26 20:15:00,
2013-07-26 15:24:00,72.9,69.1,29.93,SE,124,1.0,1.0,88,0.00,,,0.64,Wunderground v.1.15,2013-07-26 20:24:00,
2013-07-26 15:29:00,72.9,69.1,29.92,SE,136,1.0,1.0,88,0.00,,,0.64,Wunderground v.1.15,2013-07-26 20:29:00,
2013-07-26 15:34:00,73.4,69.0,29.92,SE,146,1.0,1.0,86,0.00,,,0.64,Wunderground v.1.15,2013-07-26 20:34:00,
2013-07-26 15:40:00,74.3,70.2,29.92,West,277,1.0,1.0,87,0.00,,,0.64,Wunderground v.1.15,2013-07-26 20:40:00,
2013-07-26 15:45:00,74.9,69.7,29.92,SE,136,1.0,1.0,84,0.00,,,0.64,Wunderground v.1.15,2013-07-26 20:45:00,
2013-07-26 15:50:00,75.6,69.7,29.92,SSW,202,1.0,1.0,82,0.00,,,0.64,Wunderground v.1.15,2013-07-26 20:50:00,
2013-07-26 15:59:00,76.8,70.5,29.92,West,273,1.0,3.0,81,0.00,,,0.64,Wunderground v.1.15,2013-07-26 20:59:00,
2013-07-26 16:05:00,76.4,70.5,29.92,NNW,329,1.0,4.0,82,1.11,,,0.67,Wunderground v.1.15,2013-07-26 21:05:00,
2013-07-26 16:14:00,74.4,70.3,29.92,West,264,0.0,1.0,87,0.08,,,0.69,Wunderground v.1.15,2013-07-26 21:14:00,
2013-07-26 16:19:00,73.9,70.5,29.92,West,279,0.0,0.0,89,0.05,,,0.69,Wunderground v.1.15,2013-07-26 21:19:00,
2013-07-26 16:25:00,73.8,70.7,29.92,SSW,200,0.0,1.0,90,0.00,,,0.69,Wunderground v.1.15,2013-07-26 21:25:00,
2013-07-26 16:30:00,74.1,71.3,29.93,South,191,0.0,0.0,91,0.00,,,0.69,Wunderground v.1.15,2013-07-26 21:30:00,
2013-07-26 16:35:00,74.4,71.6,29.93,South,180,0.0,0.0,91,0.00,,,0.69,Wunderground v.1.15,2013-07-26 21:35:00,
2013-07-26 16:44:00,75.3,72.2,29.93,NW,319,1.0,1.0,90,0.00,,,0.69,Wunderground v.1.15,2013-07-26 21:44:00,
2013-07-26 16:50:00,76.0,71.2,29.93,NNW,333,1.0,2.0,85,0.00,,,0.69,Wunderground v.1.15,2013-07-26 21:50:00,
2013-07-26 16:55:00,76.1,67.6,29.93,NW,323,2.0,3.0,75,0.00,,,0.69,Wunderground v.1.15,2013-07-26 21:55:00,
2013-07-26 17:00:00,76.7,67.8,29.94,NNW,340,2.0,2.0,74,0.00,,,0.69,Wunderground v.1.15,2013-07-26 22:00:00,
2013-07-26 17:05:00,77.1,65.7,29.94,NW,321,2.0,2.0,68,0.00,,,0.69,Wunderground v.1.15,2013-07-26 22:05:00,
2013-07-26 17:14:00,76.9,63.3,29.94,NW,322,3.0,4.0,63,0.00,,,0.69,Wunderground v.1.15,2013-07-26 22:14:00,
2013-07-26 17:20:00,76.6,63.1,29.94,NW,319,4.0,4.0,63,0.00,,,0.69,Wunderground v.1.15,2013-07-26 22:20:00,
2013-07-26 17:25:00,76.6,62.1,29.94,NW,325,3.0,6.0,61,0.00,,,0.69,Wunderground v.1.15,2013-07-26 22:25:00,
2013-07-26 17:30:00,76.3,61.4,29.95,NNW,329,2.0,4.0,60,0.00,,,0.69,Wunderground v.1.15,2013-07-26 22:30:00,
2013-07-26 17:35:00,76.0,60.6,29.95,WNW,294,1.0,4.0,59,0.00,,,0.69,Wunderground v.1.15,2013-07-26 22:35:00,
2013-07-26 17:44:00,75.5,60.2,29.95,NW,326,1.0,1.0,59,0.00,,,0.69,Wunderground v.1.15,2013-07-26 22:44:00,
2013-07-26 17:50:00,75.1,59.8,29.95,NNW,329,1.0,4.0,59,0.00,,,0.69,Wunderground v.1.15,2013-07-26 22:50:00,
2013-07-26 18:00:00,74.5,60.2,29.96,NNW,330,2.0,2.0,61,0.00,,,0.69,Wunderground v.1.15,2013-07-26 23:00:00,
2013-07-26 18:05:00,74.4,60.1,29.95,NNW,331,1.0,2.0,61,0.00,,,0.69,Wunderground v.1.15,2013-07-26 23:05:00,
2013-07-26 18:14:00,73.9,60.1,29.96,NNW,336,2.0,4.0,62,0.00,,,0.69,Wunderground v.1.15,2013-07-26 23:14:00,
2013-07-26 18:20:00,73.7,60.3,29.96,NNW,342,2.0,2.0,63,0.00,,,0.69,Wunderground v.1.15,2013-07-26 23:20:00,
2013-07-26 18:25:00,73.6,60.7,29.96,NNW,340,1.0,2.0,64,0.00,,,0.69,Wunderground v.1.15,2013-07-26 23:25:00,
2013-07-26 18:30:00,73.5,60.6,29.95,NW,323,2.0,2.0,64,0.00,,,0.69,Wunderground v.1.15,2013-07-26 23:30:00,
2013-07-26 18:40:00,73.0,60.5,29.96,NW,323,2.0,2.0,65,0.00,,,0.69,Wunderground v.1.15,2013-07-26 23:40:00,
2013-07-26 18:49:00,72.5,59.6,29.96,NNW,330,3.0,3.0,64,0.00,,,0.69,Wunderground v.1.15,2013-07-26 23:49:00,
2013-07-26 19:00:00,72.0,59.6,29.97,NW,323,3.0,3.0,65,0.00,,,0.69,Wunderground v.1.15,2013-07-27 00:00:00,
2013-07-26 19:05:00,71.7,59.7,29.97,NNW,336,3.0,4.0,66,0.00,,,0.69,Wunderground v.1.15,2013-07-27 00:05:00,
2013-07-26 19:50:00,68.4,57.4,29.99,NNW,331,3.0,3.0,68,0.00,,,0.69,Wunderground v.1.15,2013-07-27 00:50:00,
2013-07-26 19:55:00,68.1,57.5,29.99,NNW,343,2.0,3.0,69,0.00,,,0.69,Wunderground v.1.15,2013-07-27 00:55:00,
2013-07-26 20:00:00,67.8,57.7,29.99,NNW,343,1.0,1.0,70,0.00,,,0.69,Wunderground v.1.15,2013-07-27 01:00:00,
2013-07-26 20:05:00,67.4,57.7,29.99,NNW,343,0.0,1.0,71,0.00,,,0.69,Wunderground v.1.15,2013-07-27 01:05:00,
2013-07-26 20:15:00,66.7,57.4,29.99,NNW,342,0.0,0.0,72,0.00,,,0.69,Wunderground v.1.15,2013-07-27 01:15:00,
2013-07-26 20:20:00,66.5,57.6,29.98,NNW,342,0.0,0.0,73,0.00,,,0.69,Wunderground v.1.15,2013-07-27 01:20:00,
2013-07-26 20:25:00,66.3,58.9,29.98,NNW,343,0.0,0.0,77,0.00,,,0.69,Wunderground v.1.15,2013-07-27 01:25:00,
2013-07-26 20:34:00,64.5,57.8,29.98,NNW,343,0.0,0.0,79,0.00,,,0.69,Wunderground v.1.15,2013-07-27 01:34:00,
2013-07-26 20:40:00,63.6,57.7,29.98,NNW,342,0.0,0.0,81,0.00,,,0.69,Wunderground v.1.15,2013-07-27 01:40:00,
2013-07-26 20:45:00,63.0,57.4,29.98,NNW,343,0.0,0.0,82,0.00,,,0.69,Wunderground v.1.15,2013-07-27 01:45:00,
2013-07-26 20:50:00,62.4,56.8,29.98,NNW,343,0.0,0.0,82,0.00,,,0.69,Wunderground v.1.15,2013-07-27 01:50:00,
2013-07-26 20:55:00,62.1,56.9,29.98,NNW,342,0.0,0.0,83,0.00,,,0.69,Wunderground v.1.15,2013-07-27 01:55:00,
2013-07-26 21:00:00,61.8,56.9,29.99,NNW,343,0.0,0.0,84,0.00,,,0.69,Wunderground v.1.15,2013-07-27 02:00:00,
2013-07-26 21:05:00,61.5,56.9,29.99,NNW,342,0.0,0.0,85,0.00,,,0.69,Wunderground v.1.15,2013-07-27 02:05:00,
2013-07-26 21:15:00,61.0,56.8,29.98,NNW,342,0.0,0.0,86,0.00,,,0.69,Wunderground v.1.15,2013-07-27 02:15:00,
2013-07-26 21:24:00,60.8,56.9,29.99,NNW,342,0.0,0.0,87,0.00,,,0.69,Wunderground v.1.15,2013-07-27 02:24:00,
2013-07-26 21:30:00,60.5,56.6,29.99,NNW,342,0.0,0.0,87,0.00,,,0.69,Wunderground v.1.15,2013-07-27 02:30:00,
2013-07-26 21:35:00,60.3,56.7,29.99,NNW,342,0.0,0.0,88,0.00,,,0.69,Wunderground v.1.15,2013-07-27 02:35:00,
2013-07-26 21:40:00,60.1,56.5,29.99,NNW,343,0.0,0.0,88,0.00,,,0.69,Wunderground v.1.15,2013-07-27 02:40:00,
2013-07-26 21:50:00,59.7,56.5,29.99,NNW,343,0.0,0.0,89,0.00,,,0.69,Wunderground v.1.15,2013-07-27 02:50:00,
2013-07-26 21:55:00,59.5,56.3,29.99,NNW,343,0.0,0.0,89,0.00,,,0.69,Wunderground v.1.15,2013-07-27 02:55:00,
2013-07-26 22:00:00,59.3,56.4,29.99,NNW,343,0.0,0.0,90,0.00,,,0.69,Wunderground v.1.15,2013-07-27 03:00:00,
2013-07-26 22:05:00,59.1,56.2,29.99,NNW,343,0.0,0.0,90,0.00,,,0.69,Wunderground v.1.15,2013-07-27 03:05:00,
2013-07-26 22:15:00,59.0,56.1,29.99,NNW,343,0.0,0.0,90,0.00,,,0.69,Wunderground v.1.15,2013-07-27 03:15:00,
2013-07-26 22:24:00,58.9,56.3,29.99,NNW,343,0.0,0.0,91,0.00,,,0.69,Wunderground v.1.15,2013-07-27 03:24:00,
2013-07-26 22:30:00,58.9,56.3,29.99,NNW,342,0.0,0.0,91,0.00,,,0.69,Wunderground v.1.15,2013-07-27 03:30:00,
2013-07-26 22:39:00,58.6,56.0,29.99,NNW,343,0.0,0.0,91,0.00,,,0.69,Wunderground v.1.15,2013-07-27 03:39:00,
2013-07-26 22:45:00,58.4,55.8,29.98,NNW,343,0.0,0.0,91,0.00,,,0.69,Wunderground v.1.15,2013-07-27 03:45:00,
2013-07-26 22:50:00,58.2,55.9,29.98,NNW,343,0.0,0.0,92,0.00,,,0.69,Wunderground v.1.15,2013-07-27 03:50:00,
2013-07-26 22:55:00,58.2,55.9,29.98,NNW,343,0.0,0.0,92,0.00,,,0.69,Wunderground v.1.15,2013-07-27 03:55:00,
2013-07-26 23:05:00,58.0,55.7,29.99,NNW,343,0.0,0.0,92,0.00,,,0.69,Wunderground v.1.15,2013-07-27 04:05:00,
2013-07-26 23:10:00,57.8,55.5,29.99,NNW,342,0.0,0.0,92,0.00,,,0.69,Wunderground v.1.15,2013-07-27 04:10:00,
2013-07-26 23:15:00,57.8,55.5,29.99,NNW,343,0.0,0.0,92,0.00,,,0.69,Wunderground v.1.15,2013-07-27 04:15:00,
2013-07-26 23:20:00,57.7,55.4,29.99,NNW,342,0.0,0.0,92,0.00,,,0.69,Wunderground v.1.15,2013-07-27 04:20:00,
2013-07-26 23:29:00,57.5,55.5,29.99,NNW,343,0.0,0.0,93,0.00,,,0.69,Wunderground v.1.15,2013-07-27 04:29:00,
2013-07-26 23:34:00,57.8,55.8,29.99,NNW,343,0.0,0.0,93,0.00,,,0.69,Wunderground v.1.15,2013-07-27 04:34:00,
2013-07-26 23:40:00,58.0,56.0,29.99,NNW,342,0.0,0.0,93,0.00,,,0.69,Wunderground v.1.15,2013-07-27 04:40:00,
2013-07-26 23:45:00,58.1,56.1,29.99,NNW,343,0.0,0.0,93,0.00,,,0.69,Wunderground v.1.15,2013-07-27 04:45:00,
2013-07-26 23:50:00,58.3,56.3,29.99,NNW,342,0.0,0.0,93,0.00,,,0.69,Wunderground v.1.15,2013-07-27 04:50:00,
2013-07-26 23:55:00,58.4,56.4,29.98,NNW,343,0.0,0.0,93,0.00,,,0.69,Wunderground v.1.15,2013-07-27 04:55:00,
2013-07-26 23:59:00,58.2,55.9,29.98,NNW,343,0.0,0.0,92,0.00,,,0.00,Wunderground v.1.15,2013-07-27 04:59:00,